This demonstration page uses our WeatherBlox Daily Observations layout. Learn more.

Left ArrowRight Arrow

Hourly Observations for October 27, 2015

Temp ( °F °C ) Dew Point ( °F °C ) Humidity (%) Winds ( mph kmh ) Pressure ( in mb ) Visibility ( mi km ) Precip ( " mm )
12:15 am 00:15 Cloudy 47 8.5 36 2 64 64 ESE 7 11 30.06 1018 10 16 N/A
12:35 am 00:35 Cloudy 49 9.2 36 2.2 62 62 SE 9 15 30.03 1017 10 16 N/A
12:55 am 00:55 Cloudy 49 9.7 36 2.4 61 61 SE 8 13 30.00 1016 10 16 N/A
1:15 am 01:15 Cloudy 49 9.5 37 2.7 63 63 SE 8 13 30.00 1016 10 16 N/A
1:35 am 01:35 Mostly Cloudy 49 9.7 37 2.5 61 61 SE 9 15 30.00 1016 10 16 N/A
1:55 am 01:55 Mostly Cloudy 50 10 36 2.3 59 59 SE 9 15 30.00 1016 10 16 N/A
2:15 am 02:15 Cloudy 50 10 36 2.4 60 60 SE 10 17 30.00 1016 10 16 N/A
2:35 am 02:35 Cloudy 50 10 37 2.5 60 60 SSE 9 15 30.00 1016 10 16 N/A
2:55 am 02:55 Mostly Cloudy 49 9.6 37 2.7 62 62 SE 9 15 30.00 1016 10 16 N/A
3:15 am 03:15 Cloudy 49 9.7 37 2.7 62 62 SSE 10 17 29.97 1015 10 16 N/A
3:35 am 03:35 Cloudy 49 9.6 37 2.8 63 63 SSE 10 17 29.97 1015 10 16 N/A
3:55 am 03:55 Cloudy 49 9.4 37 2.7 63 63 SSE 8 13 30.00 1016 10 16 N/A
4:15 am 04:15 Cloudy 49 9.2 37 2.9 65 65 SSE 7 11 30.00 1016 10 16 N/A
4:35 am 04:35 Cloudy 48 9.1 37 3 66 66 SSE 8 13 30.00 1016 10 16 N/A
4:55 am 04:55 Cloudy 48 9.1 37 3 66 66 SSE 12 19 30.00 1016 10 16 N/A
5:15 am 05:15 Cloudy 48 8.9 38 3.3 68 68 SSE 10 17 29.97 1015 10 16 N/A
5:35 am 05:35 Cloudy 48 8.7 38 3.3 69 69 SSE 9 15 29.97 1015 10 16 N/A
5:55 am 05:55 Cloudy with Light Rain 46 8 40 4.2 77 77 SSE 14 22 29.97 1015 10 16 N/A
6:15 am 06:15 Cloudy with Light Rain 47 8.1 40 4.2 77 77 SSE 14 22 29.94 1014 10 16 N/A
6:35 am 06:35 Cloudy with Light Rain 47 8.2 40 4.4 77 77 S 9 15 29.97 1015 10 16 N/A
6:55 am 06:55 Cloudy 46 7.7 41 5 83 83 S 8 13 29.97 1015 10 16 N/A
7:15 am 07:15 Cloudy 46 7.7 41 5 83 83 SSE 6 9 29.97 1015 10 16 N/A
7:35 am 07:35 Cloudy 46 7.9 41 5 82 82 S 5 7 29.94 1014 10 16 N/A
7:55 am 07:55 Cloudy 46 7.7 41 5.1 84 84 SSE 6 9 29.94 1014 10 16 N/A
8:15 am 08:15 Cloudy 46 7.6 42 5.3 86 86 SSE 8 13 29.94 1014 10 16 N/A
8:35 am 08:35 Cloudy 46 7.6 42 5.5 87 87 SSE 8 13 29.94 1014 10 16 N/A
8:55 am 08:55 Cloudy 46 7.7 42 5.6 87 87 SSE 7 11 29.94 1014 10 16 N/A
9:15 am 09:15 Cloudy 46 8 42 5.8 86 86 SSE 6 9 29.94 1014 10 16 N/A
9:35 am 09:35 Mostly Cloudy 47 8.2 43 6.1 87 87 SSE 7 11 29.94 1014 10 16 N/A
9:55 am 09:55 Partly Cloudy 47 8.5 43 6.3 86 86 S 6 9 29.94 1014 10 16 N/A
10:15 am 10:15 Sunny 48 8.9 44 6.6 86 86 S 5 7 29.94 1014 10 16 N/A
10:35 am 10:35 Sunny 49 9.3 45 7 86 86 S 6 9 29.94 1014 10 16 N/A
10:55 am 10:55 Sunny 50 10.2 46 7.5 84 84 S 8 13 29.88 1012 10 16 N/A
11:15 am 11:15 Sunny 51 10.5 46 7.6 82 82 S 9 15 29.88 1012 10 16 N/A
11:35 am 11:35 Sunny 51 10.5 46 7.6 82 82 S 10 17 29.88 1012 10 16 N/A
11:55 am 11:55 Sunny 53 11.8 47 8.5 80 80 SSE 9 15 29.85 1011 10 16 N/A
12:15 pm 12:15 Sunny 54 12.3 47 8.5 78 78 SSE 9 15 29.83 1010 10 16 N/A
12:35 pm 12:35 Sunny 56 13.3 47 8.5 73 73 SSE 12 19 29.83 1010 10 16 N/A
12:55 pm 12:55 Sunny 57 14.1 47 8.3 68 68 S 13 20 29.80 1009 10 16 N/A
1:15 pm 13:15 Sunny 59 15.1 49 9.2 68 68 S 7 11 29.77 1008 10 16 N/A
1:35 pm 13:35 Sunny 60 15.8 47 8.6 63 63 S 15 24 29.77 1008 10 16 N/A
1:55 pm 13:55 Sunny 60 15.8 48 8.9 64 64 S 10 17 29.74 1007 10 16 N/A
2:15 pm 14:15 Sunny 61 16.3 48 8.9 62 62 SSW 12 19 29.74 1007 10 16 N/A
2:35 pm 14:35 Sunny 62 16.7 47 8.5 59 59 SSW 13 20 29.74 1007 10 16 N/A
2:55 pm 14:55 Sunny 62 16.8 47 8.4 58 58 S 12 19 29.71 1006 10 16 N/A
3:15 pm 15:15 Sunny 62 16.7 46 7.7 56 56 SSW 14 22 29.71 1006 10 16 N/A
3:35 pm 15:35 Sunny 63 17 47 8.3 57 57 SSE 7 11 29.71 1006 10 16 N/A
3:55 pm 15:55 Sunny 63 17.3 47 8.6 57 57 S 9 15 29.71 1006 10 16 N/A
4:15 pm 16:15 Sunny 63 17.4 48 8.9 58 58 SSW 10 17 29.71 1006 10 16 N/A
4:35 pm 16:35 Sunny 64 17.5 48 8.8 57 57 S 5 7 29.65 1004 10 16 N/A
4:55 pm 16:55 Sunny 63 17.2 47 8.5 57 57 SSW 7 11 29.68 1005 10 16 N/A
5:15 pm 17:15 Sunny with Nearby Thunderstorms 62 16.8 48 8.8 59 59 S 7 11 29.68 1005 10 16 N/A
5:35 pm 17:35 Sunny 63 17.2 48 9 59 59 S 7 11 29.68 1005 10 16 N/A
5:55 pm 17:55 Sunny 61 15.9 47 8.4 61 61 S 6 9 29.71 1006 10 16 N/A
6:15 pm 18:15 Sunny 58 14.5 48 8.7 68 68 SSE 3 6 29.71 1006 10 16 N/A
6:35 pm 18:35 Sunny 58 14.7 47 8.1 65 65 SSE 3 6 29.68 1005 10 16 N/A
6:55 pm 18:55 Clear 56 13.4 46 8 70 70 S 5 7 29.71 1006 10 16 N/A
7:15 pm 19:15 Clear 56 13.1 45 7.1 67 67 SE 3 6 29.71 1006 10 16 N/A
7:35 pm 19:35 Clear 58 14.2 44 6.5 60 60 SSE 3 6 29.74 1007 10 16 N/A
7:55 pm 19:55 Clear 51 10.7 44 6.8 77 77 N 7 11 29.74 1007 10 16 N/A
8:15 pm 20:15 Clear 53 11.5 44 6.4 71 71 NNW 9 15 29.74 1007 10 16 N/A
8:35 pm 20:35 Partly Cloudy 55 12.6 43 6.2 65 65 NNW 14 22 29.77 1008 10 16 N/A
8:55 pm 20:55 Clear 52 11.1 44 6.4 73 73 N 18 30 29.80 1009 10 16 N/A
9:15 pm 21:15 Clear 50 10.1 43 6.3 77 77 N 16 26 29.80 1009 10 16 N/A
9:35 pm 21:35 Clear 49 9.5 43 6.2 80 80 N 14 22 29.83 1010 10 16 N/A
9:55 pm 21:55 Clear 48 9 43 6.1 82 82 NNW 14 22 29.85 1011 10 16 N/A
10:15 pm 22:15 Mostly Cloudy 48 9.1 44 6.5 84 84 N 18 30 29.85 1011 10 16 N/A
10:35 pm 22:35 Cloudy 49 9.7 44 6.5 81 81 N 21 33 29.88 1012 10 16 N/A
10:55 pm 22:55 Cloudy 50 10 43 6.3 78 78 N 20 31 29.88 1012 10 16 N/A
11:15 pm 23:15 Cloudy 50 10 44 6.5 79 79 N 18 30 29.91 1013 10 16 N/A
11:35 pm 23:35 Cloudy 50 10 44 6.5 79 79 NNW 16 26 29.91 1013 10 16 N/A
11:55 pm 23:55 Cloudy 50 10 43 6.2 77 77 N 14 22 29.91 1013 10 16 N/A

Powered by AerisWeather